Home   Weather   Bodrum   Past weeks

Flag for Turkey Past Weather in Bodrum, Turkey — Yesterday and Last 2 Weeks

Now
70 °F

Sunny.


Feels Like: 70 °F
Forecast: 74 / 85 °F
Wind: No wind

Location: Bodrum Milas Airport

Current Time: Jul 25, 2017 at 7:54:20 am

Latest Report: Jul 25, 2017 at 7:20 am


Visibility: 10 mi

Pressure: 29.65 "Hg

Humidity: 69%

Dew Point: 59 °F

Location of BodrumLocation

Past Weather in Bodrum — Graph

°F

Bodrum Temperature Yesterday

Maximum temperature yesterday: 104 °F (at 2:50 pm)
Minimum temperature yesterday: 64 °F (at 6:20 am)
Average temperature yesterday: 85 °F

High & Low Weather Summary for the Past Weeks

 TemperatureHumidityPressure
High108 °F (Jul 13, 3:50 pm)88% (Jul 17, 5:20 am)29.86 "Hg (Jul 17, 5:20 am)
Low63 °F (Jul 13, 4:50 am)9% (Jul 13, 3:20 pm)29.53 "Hg (Jul 13, 5:20 pm)
Average83 °F53%29.72 "Hg
* Reported Jul 10 6:20 am — Jul 25 6:20 am, Bodrum. Weather by CustomWeather, © 2017

Note: Actual official high and low records may vary slightly from our data, if they occured in-between our weather recording intervals... More about our weather records

Advertising

Bodrum Weather History for the Previous 24 Hours

Scroll right to see more
 ConditionsComfort  
Time TempWeatherWind HumidityBarometerVisibility
6:20 am
Tue, Jul 25
64 °FSunny.3 mph78%29.65 "Hg10 mi
5:50 am66 °FPassing clouds.3 mph78%29.65 "HgN/A
5:20 am66 °FClear.2 mph78%29.65 "Hg10 mi
4:50 am66 °FClear.2 mph78%29.65 "Hg10 mi
4:20 am68 °FClear.2 mph73%29.65 "Hg10 mi
3:50 am68 °FClear.3 mph78%29.65 "Hg10 mi
3:20 am68 °FClear.1 mph73%29.65 "Hg10 mi
2:50 am70 °FClear.2 mph69%29.65 "Hg10 mi
2:20 am72 °FClear.1 mph65%29.65 "Hg10 mi
1:50 am73 °FClear.3 mph65%29.65 "Hg10 mi
1:20 am73 °FPassing clouds.3 mph65%29.68 "HgN/A
12:50 am75 °FClear.3 mph61%29.68 "Hg10 mi
12:20 am75 °FClear.2 mph61%29.68 "Hg10 mi
11:50 pm
Mon, Jul 24
77 °FClear.2 mph61%29.65 "Hg10 mi
11:20 pm79 °FClear.5 mph58%29.65 "Hg10 mi
10:50 pm81 °FPassing clouds.6 mph54%29.65 "HgN/A
10:20 pm84 °FClear.7 mph45%29.65 "Hg10 mi
9:50 pm84 °FPassing clouds.8 mph45%29.65 "HgN/A
9:20 pm84 °FClear.8 mph48%29.65 "Hg10 mi
8:50 pm86 °FClear.9 mph46%29.62 "Hg10 mi
8:20 pm88 °FSunny.13 mph40%29.62 "Hg10 mi
7:50 pm90 °FSunny.12 mph41%29.62 "Hg10 mi
7:20 pm91 °FSunny.13 mph36%29.59 "Hg10 mi
6:50 pm95 °FSunny.10 mph32%29.59 "Hg10 mi
6:20 pm99 °FPassing clouds.10 mph22%29.59 "HgN/A
5:50 pm100 °FSunny.14 mph27%29.59 "Hg10 mi
5:20 pm100 °FSunny.13 mph24%29.59 "Hg10 mi
4:50 pm99 °FSunny.14 mph27%29.59 "Hg10 mi
4:20 pm99 °FPassing clouds.15 mph29%29.59 "HgN/A
3:50 pm102 °FSunny.14 mph21%29.62 "Hg10 mi
3:20 pm104 °FSunny.15 mph17%29.62 "Hg10 mi
2:50 pm104 °FSunny.12 mph17%29.62 "Hg10 mi
2:20 pm102 °FSunny.13 mph16%29.62 "Hg10 mi
1:50 pm102 °FSunny.13 mph17%29.62 "Hg10 mi
1:20 pm100 °FSunny.13 mph20%29.65 "Hg10 mi
12:50 pm99 °FSunny.13 mph21%29.65 "Hg10 mi
12:20 pm99 °FPassing clouds.9 mph21%29.65 "HgN/A
11:50 am99 °FPassing clouds.7 mph24%29.68 "HgN/A
11:20 am97 °FSunny.6 mph23%29.68 "Hg10 mi
10:50 am93 °FSunny.7 mph30%29.68 "Hg10 mi
10:20 am90 °FSunny.9 mph38%29.68 "Hg10 mi
9:50 am88 °FSunny.7 mph43%29.68 "Hg10 mi
9:20 am86 °FPassing clouds.5 mph38%29.68 "HgN/A
8:50 am81 °FPassing clouds.5 mph48%29.68 "HgN/A
8:20 am79 °FSunny.1 mph51%29.68 "Hg10 mi
7:50 am75 °FSunny.2 mph57%29.68 "Hg10 mi
7:20 am72 °FSunny.2 mph65%29.71 "Hg10 mi
Weather by CustomWeather, © 2017

See weather overviewHow to use our weather pages